Regional Weather Roundup
Issued by NWS

Home | Current Version | Previous Version | Graphics & Text | Print | Product List | Glossary On
Versions: 1 2 3 4 5 6 7 8 9 10 11 12 13 14 15 16 17 18 19 20 21 22 23 24 25 26 27
000
ASUS45 KTFX 211610
RWRMT
MONTANA REGIONAL WEATHER ROUNDUP
NATIONAL WEATHER SERVICE GREAT FALLS MT
1000 AM MDT SAT APR 21 2018

NOTE: "FAIR" INDICATES FEW OR NO CLOUDS BELOW 12000 FEET WITH NO
SIGNIFICANT WEATHER AND/OR OBSTRUCTIONS TO VISIBILITY.

MTZ001>007-043-211700-
WEST OF THE DIVIDE

CITY           SKY/WX    TMP DP  RH WIND       PRES   REMARKS
KALISPELL      CLOUDY    47  39  74 S9        30.07F
MISSOULA       CLOUDY    43  33  68 CALM      30.14F
BUTTE          CLOUDY    47  28  47 VRB3      30.13S
MULLAN PASS    FLURRIES  33  29  85 SW12G28   30.10S WCI  24
ANACONDA         N/A     54  23  30 S12       30.09F
DEER LODGE       N/A     45  30  57 N6        30.13F
HAMILTON         N/A     46  32  57 MISG      30.14R
PLAINS           N/A     51  35  54 S12       30.12F
RONAN            N/A     48  36  61 CALM      30.14S
$$

MTZ008-052>055-211700-
SOUTHWEST MONTANA

CITY           SKY/WX    TMP DP  RH WIND       PRES   REMARKS
BOZEMAN        FAIR      48  33  56 CALM      30.11S
DILLON         FAIR      50  26  39 SW15      30.12F
ENNIS          SUNNY     52  30  43 SE7       30.16S
W YELLOWSTONE  FAIR      36  25  64 NE5       30.18F
THREE FORKS      N/A     49  32  52 CALM      30.08F
TWIN BRIDGES     N/A     49  27  42 S9        30.10
$$

MTZ009-010-012-014-046-048-049-054-211700-
EAST SLOPES AND CENTRAL MONTANA

CITY           SKY/WX    TMP DP  RH WIND       PRES   REMARKS
CUT BANK       FAIR      47  33  58 W26G35    29.95S
GREAT FALLS    FAIR      58  27  30 SW26G36   29.98S
HELENA         FAIR      49  32  52 VRB5      30.08F
AUGUSTA        FAIR      51  27  38 W22G29    29.99S
BOWMANS CRNR   FAIR      54  27  35 SW15      29.99R
CHOTEAU          N/A     55  27  33 SW9G18    29.99R
FAIRFIELD      FAIR      57  27  31 SW17      29.97R
POWER          PTSUNNY   55  27  33 SW22      29.97R
RAYNESFORD     FAIR      60  24  25 SW21G31   29.99F
ULM            PTSUNNY   60  27  28 W23G29    30.00S
WHITE SULPHUR    N/A     54  25  32 S16       30.06S
$$

MTZ011-013-016-021-045-047-050-051-211700-
NORTH CENTRAL MONTANA

CITY           SKY/WX    TMP DP  RH WIND       PRES   REMARKS
HAVRE          FAIR      58  34  40 SW16      29.94S
LEWISTOWN      FAIR      62  28  27 SW22G29   30.00F
N BAR RANCH    FAIR      61  28  29 SW23G29   30.02F
CHINOOK          N/A     54  43  66 CALM      29.94F
GEYSER         FAIR      61  23  23 W17G29    29.98F
GRASS RANGE    FAIR      62  31  31 CALM      29.95F
STANFORD       FAIR      61  22  22 W10       29.99F
$$

MTZ017>020-022>027-061-062-211700-
NORTHEAST MONTANA

CITY           SKY/WX    TMP DP  RH WIND       PRES   REMARKS
GLASGOW        FAIR      54  40  59 SE17      30.00F
GLENDIVE       FAIR      52  39  61 S12       30.08F
JORDAN           N/A     59  41  51 S8        30.01F
MALTA          SUNNY     57  43  58 CALM      29.94F
SIDNEY         FAIR      54  39  57 S14       30.07F
WOLF POINT     FAIR      56  41  57 S6        30.04F
PLENTYWOOD       N/A     48  43  81 MISG      30.05F
POPLAR           N/A     54  39  58 SW6       30.05F
$$

MTZ028>42-056>058-211700-
SOUTHCENTRAL AND SOUTHEAST MONTANA

CITY           SKY/WX    TMP DP  RH WIND       PRES   REMARKS
BAKER          FAIR      52  39  61 S14       30.12F
BILLINGS       FAIR      52  36  54 SW14      30.06S
LIVINGSTON     FAIR      57  30  35 W20       30.06F
MILES CITY     FAIR      53  40  61 S10       30.06F
BIG TIMBER     SUNNY     54  30  40 W16       30.07S
EKALAKA          N/A     49  37  63 SE15      30.08F
FORSYTH          N/A     57  37  47 CALM      30.05F
HARLOWTON      FAIR      54  33  44 NW8       30.05F
LAUREL           N/A     55  36  47 SW14      30.07S
$$

REGIONAL REPORTS...DAKOTAS

CITY           SKY/WX    TMP DP  RH WIND       PRES   REMARKS
WILLISTON      FAIR      54  39  57 S15G24    30.09F
MINOT          FAIR      51  39  63 S14G26    30.17F
DICKINSON      PTSUNNY   49  38  65 S21       30.14F
BEACH          FAIR      52  39  62 S16       30.13F
CROSBY         FAIR      50  43  76 S21G28    30.07F
TIOGA          FAIR      50  48  93 S16       30.11F
WATFORD CITY   FAIR      54  39  58 S14G20    30.10F
BISMARCK       FAIR      55  38  52 S18G25    30.24F
GRAND FORKS    PTSUNNY   44  41  89 S14       30.33F
FARGO          FAIR      49  38  65 S8        30.35F
BUFFALO SD       N/A     49  37  63 S15       30.10F
RAPID CITY     CLOUDY    43  37  79 S15       30.21S
$$

REGIONAL REPORTS...WYOMING/IDAHO/WASHINGTON

CITY           SKY/WX    TMP DP  RH WIND       PRES   REMARKS
GILLETTE       FAIR      47  36  65 S15       30.12S
SHERIDAN       FAIR      50  37  61 NE3       30.08F
BUFFALO WY     FAIR      52  37  56 SE6       30.10S
CODY           FAIR      55  30  38 VRB3      30.11F
YELLOWSTONE LA   N/A     33  22  63 CALM      30.24S
IDAHO FALLS    FAIR      51  28  41 SW13G20   30.19S
SALMON         FAIR      45  30  55 VRB3      30.19F
BOISE          CLOUDY    58  34  40 W5        30.18R
SPOKANE        FAIR      50  31  48 W25G33    30.14R
$$

REGIONAL REPORTS...ALBERTA

CITY           SKY/WX    TMP DP  RH WIND       PRES   REMARKS
CALGARY        MOSUNNY   48  28  46 S8        29.72F
CARDSTON         N/A     52  32  46 SW10G17     N/A
EDMONTON       PTSUNNY   48  27  43 E2        29.71F
FORT MCMURRAY  MOSUNNY   48  30  49 E9        29.83F
HIGH LEVEL     PTSUNNY   41  27  56 VRB2      29.82R
LETHBRIDGE     PTSUNNY   50  32  50 SW15G24   29.87F
LLOYDMINSTER   CLOUDY    45  39  81 E13       29.78F
MEDICINE HAT   CLOUDY    55  30  38 SW18G26   29.84F
MILK RIVER       N/A     50  34  53 W23G29      N/A
PEACE RIVER    CLOUDY    39  28  65 VRB6      29.74S
PINCHER CREEK  SUNNY     48  32  53 W26G37    29.86F
WATERTON GATE    N/A     48  30  49 SW21G35     N/A
$$

REGIONAL REPORTS...SASKATCHEWAN

CITY           SKY/WX    TMP DP  RH WIND       PRES   REMARKS
CORONACH         N/A     52  39  62 S13         N/A
CYPRESS HILLS    N/A     43  32  65 S10         N/A
ESTEVAN        MOSUNNY   52  39  62 S16G23    30.08F
MOOSE JAW        N/A     61  37  41 S13         N/A
PRINCE ALBERT  CLOUDY    41  34  75 SE7       29.93F
REGINA         PTSUNNY   46  41  81 SE18      30.00F
ROCKGLEN         N/A     52  41  66 S13         N/A
SASKATOON      CLOUDY    50  36  57 SE8       29.90F
SWIFT CURRENT  SUNNY     57  37  47 S21G29    29.88F
VAL MARIE        N/A     57  39  51 S18         N/A
$$




USA.gov is the U.S. government's official web portal to all federal, state and local government web resources and services.